Location: Unspecified
(0.0000°N, 0.0000°E)
Time: 13:43:52
(UTC+00:00)

Vanguard 3 - Pass Details

Date: 26 November 2019
Orbit: 508 x 3263 km, 33.3° (Epoch: 08 December)

Event Time Altitude Azimuth Distance (km) Brightness Sun altitude
Rises 12:21:16 0° 289° (WNW) 5,976 11.6 67.5°
Reaches altitude 10° 12:26:38 10° 304° (NW) 5,397 11.4 67.0°
Maximum altitude 12:38:12 21° 347° (NNW) 5,120 11.3 65.6°
Drops below altitude 10° 12:51:28 10° 30° (NNE) 6,180 11.5 63.8°
Sets 12:58:29 0° 45° (NE) 7,051 11.7 62.8°
